TIME,DELAY(SENSOR),PRES,OXYGEN,RAWTEMP,T(OPTODE),TCPHASE,FLUOR,BETA(BETA700),BETA(BETA412),BETA(BETA440),CDOM,C(CSC),ED(ED411.90),ED(ED443.80),ED(ED489.40),ED(ED554.70),LU(LU412.20),LU(LU443.80),LU(LU489.40),LU(LU555.00),COMP,TILTX,TILTY,CHECK
1363731723,5806,879.5700073242188000,177.7545013427734400,474.3149108886719000,8.3242187500000000,38.9098091125488300,80,733,94,77,80,11456,2146965229,2147517988,2147291867,2147508370,2147088804,2146930523,2147708772,2147123254,1796,-1,8,9
1363735320,5805,985.0599975585938000,224.7955017089843800,535.2438964843750000,6.4317650794982910,37.0811309814453100,81,728,96,77,80,11454,2146967131,2147517248,2147299172,2147520786,2147088265,2146916123,2147719936,2147119963,1235,-1,8,14187
1363738920,5805,1009.3300170898438000,237.1539001464843800,543.5687255859375000,6.1711478233337400,36.5717887878418000,80,733,96,78,80,11458,2146964525,2147515602,2147299501,2147525403,2147085403,2146916544,2147728310,2147122075,3322,-1,8,27871
1363742520,5808,1015.5999755859375000,237.5617980957031200,543.6420898437500000,6.1688480377197270,36.5522193908691400,79,737,96,77,81,11445,2146963035,2147520265,2147297910,2147524086,2147087945,2146918445,2147724982,2147120073,589,-1,8,63908
1363746120,5805,1013.3800048828125000,237.6768035888672000,543.6586303710938000,6.1683311462402340,36.5464782714843750,81,742,96,77,81,11444,2146963629,2147517211,2147296237,2147522422,2147090294,2146916141,2147726326,2147119067,3556,-1,8,15486
1363749720,5806,1018.6199951171875000,239.4833068847656200,546.9232177734375000,6.0659828186035160,36.5121803283691400,79,739,95,76,80,11447,2146962788,2147516708,2147299931,2147520228,2147091730,2146916443,2147727168,2147124169,2925,-1,8,39154
1363753320,5805,1012.1099853515625000,243.1179962158203000,549.0850830078125000,5.9981560707092285,36.3662414550781250,80,738,97,76,79,11448,2146964498,2147519186,2147301275,2147520841,2147088320,2146919122,2147728512,2147120320,2597,-1,8,20834
1363756920,5808,1021.0399780273438000,241.1452026367187500,547.2354736328125000,6.0561871528625490,36.4324913024902340,81,741,96,78,80,11449,2146966290,2147514313,2147299520,2147520557,2147089718,2146919186,2147725174,2147121993,2975,0,8,33924
1363760520,5805,1021.5399780273438000,242.6719970703125000,547.1868286132812000,6.0577130317687990,36.3543815612793000,79,744,95,78,80,11453,2146960722,2147519369,2147300050,2147522413,2147087972,2146917906,2147726162,2147123190,1581,-1,8,63275
1363764120,5807,1019.4000244140625000,241.1459960937500000,547.2426757812500000,6.0559620857238770,36.4326210021972660,79,738,97,79,79,11448,2146963373,2147517467,2147300434,2147525604,2147088475,2146920859,2147723099,2147119753,3586,-1,8,63501
1363767720,5808,1022.5700073242188000,240.3477020263672000,547.9976196289062000,6.0322780609130860,36.4868583679199200,80,740,96,78,80,11408,2146966546,2147517403,2147298221,2147522176,2147090752,2146920841,2147722523,2147120841,471,-1,8,45793
1363771320,5805,1027.3699951171875000,242.2868957519531200,546.5286865234375000,6.0783538818359375,36.3620300292968750,81,744,95,77,79,11407,2146963364,2147520054,2147298057,2147523318,2147089170,2146917037,2147725138,2147119424,964,-1,8,33348
1363774920,5807,1026.1099853515625000,241.9472045898437500,547.6339111328125000,6.0436878204345700,36.3992118835449200,79,743,96,77,80,11408,2146965942,2147515117,2147300105,2147522267,2147089892,2146915958,2147728091,2147122825,137,-1,8,24679
1363778520,5807,1024.1600341796875000,239.2221069335937500,548.0607299804688000,6.0302982330322270,36.5462799072265600,80,740,96,78,81,11406,2146967478,2147513837,2147296301,2147519972,2147087067,2146917641,2147726025,2147119890,3295,-1,8,37250
1363782120,5810,1020.7899780273438000,243.1791992187500000,548.6981201171875000,6.0103001594543460,36.3561592102050800,81,747,95,77,81,11406,2146966016,2147519762,2147300580,2147524022,2147090596,2146916260,2147725659,2147119597,41,-1,8,26758
1363785720,5806,1020.8699951171875000,242.9447021484375000,549.4011230468750000,5.9882388114929200,36.3804893493652340,79,748,95,77,80,11408,2146967177,2147518884,2147299264,2147523821,2147088950,2146920155,2147725769,2147120137,733,0,8,4677
1363789320,5805,1019.7800292968750000,243.1215972900390600,549.5952758789062000,5.9821429252624510,36.3750495910644500,81,747,97,76,80,11382,2146965421,2147517330,2147300836,2147521517,2147089124,2146922322,2147728146,2147119405,3052,-1,8,44684
1363792920,5809,1027.7099609375000000,244.6950073242187500,549.8397216796875000,5.9744758605957030,36.2999916076660160,80,745,96,77,80,11403,2146966372,2147521289,2147300242,2147519030,2147088667,2146912283,2147725988,2147119643,489,-1,8,11133
1363796520,5807,1026.0999755859375000,243.1658935546875000,549.6884765625000000,5.9792208671569820,36.3742408752441400,81,750,96,77,80,11389,2146965540,2147514605,2147297691,2147522587,2147092086,2146917366,2147724992,2147117924,3574,-1,8,59309
1363800120,5806,1024.8399658203125000,241.4411010742187500,548.5839233398438000,6.0138850212097170,36.4418106079101560,79,748,96,77,81,11402,2146964315,2147520164,2147298724,2147525522,2147091940,2146916818,2147724736,2147119725,3532,-1,8,44143
1363803720,5807,1027.0100097656250000,241.4915924072265600,549.9082031250000000,5.9723238945007320,36.4633903503418000,80,751,97,78,81,11400,2146967158,2147523209,2147301504,2147521947,2147088530,2146920713,2147726921,2147122715,3563,-1,8,53965
1363807320,5807,1027.4599609375000000,242.2476043701172000,550.2722778320312000,5.9608960151672360,36.4316596984863300,81,752,95,78,80,11399,2146964132,2147517760,2147301933,2147520841,2147088429,2146918390,2147725394,2147121398,3261,-1,8,43555
1363810920,5807,1032.7199707031250000,243.4320983886718800,548.3106079101562000,6.0224590301513670,36.3363189697265600,80,748,96,77,80,11402,2146964918,2147518820,2147299382,2147523611,2147088256,2146917403,2147726866,2147120429,752,-1,8,34911
1363814520,5804,1027.6300048828125000,241.3271942138672000,548.6915283203125000,6.0105061531066895,36.4498291015625000,81,788,96,76,80,11400,2146964964,2147519021,2147296969,2147525504,2147088941,2146920484,2147725824,2147118912,3101,-1,8,41426
1363818120,5808,1027.8900146484375000,242.1360931396484400,549.7114257812500000,5.9784998893737790,36.4275016784668000,81,752,98,78,79,11398,2146965613,2147522276,2147298752,2147523200,2147089755,2146916809,2147724269,2147118866,3595,-1,8,61947
1363821720,5807,1027.1899414062500000,240.7191009521484400,550.4038696289062000,5.9567661285400390,36.5121498107910160,80,759,96,77,80,11391,2146963081,2147517833,2147298998,2147523776,2147089188,2146914139,2147728512,2147119405,325,-1,8,63979
1363825320,5803,1034.3100585937500000,245.4064025878906200,549.7955932617188000,5.9758591651916500,36.2635002136230500,80,756,96,78,81,11393,2146965019,2147520566,2147300187,2147524214,2147088338,2146918710,2147724964,2147119113,3036,-1,8,17536
1363828920,5807,1035.1500244140625000,241.2404022216797000,546.4514160156250000,6.0807800292968750,36.4138908386230500,80,757,95,77,81,11390,2146966793,2147520320,2147300297,2147523520,2147087012,2146922898,2147724754,2147121600,904,0,8,54531
1363832520,5807,1033.7800292968750000,243.3856964111328000,548.1005859375000000,6.0290470123291020,36.3350486755371100,81,757,95,77,79,11357,2146961536,2147519286,2147300498,2147520740,2147090304,2146922825,2147721270,2147119021,1827,-1,8,25465
1363836120,5807,1029.8900146484375000,239.2527008056640600,543.6602783203125000,6.1682782173156740,36.4649810791015600,81,752,97,77,80,11355,2146966427,2147520009,2147299254,2147521819,2147090624,2146920740,2147721947,2147124553,430,-1,8,13552
1363839720,5807,1031.0400390625000000,238.4486999511718800,544.1154785156250000,6.1540088653564450,36.5145301818847660,81,755,96,77,80,11358,2146962304,2147515885,2147298989,2147518582,2147091282,2146922249,2147725293,2147121490,144,-1,8,10727
1363843320,5806,1028.8199462890625000,238.8377990722656200,544.1571044921875000,6.1527080535888670,36.4953613281250000,82,755,95,78,80,11356,2146968576,2147519277,2147302016,2147521362,2147086592,2146916534,2147722432,2147119460,394,0,8,47407
1363846920,5807,1031.7399902343750000,238.5820007324218800,544.1411743164062000,6.1532058715820310,36.5077705383300800,81,755,95,78,80,11357,2146964260,2147517878,2147299739,2147523126,2147091584,2146918418,2147723017,2147119378,516,-1,8,5782
1363850520,5805,1028.0699462890625000,237.9886016845703000,543.7186279296875000,6.1664519309997560,36.5308303833007800,81,757,97,78,81,11357,2146965220,2147519963,2147296676,2147520795,2147090852,2146923401,2147725531,2147118016,2762,0,8,25524
1363854120,5805,1032.5899658203125000,239.8778991699218800,544.1478881835938000,6.1529960632324220,36.4421310424804700,81,758,103,77,80,11295,2146967862,2147521645,2147297590,2147520676,2147088548,2146922148,2147725394,2147120539,2637,0,8,3776
1363857720,5805,1029.5999755859375000,239.1029052734375000,544.0386962890625000,6.1564202308654785,36.4798393249511700,81,762,96,77,80,11296,2146966473,2147516086,2147300452,2147522962,2147089682,2146918134,2147722313,2147120804,303,-1,8,54616
1363861320,5807,1034.8199462890625000,237.0608978271484400,541.7332763671875000,6.2286529541015625,36.5429992675781250,82,761,97,76,80,11296,2146965961,2147516498,2147298971,2147519908,2147088896,2146920310,2147726381,2147117357,570,-1,8,11730
1363864920,5805,1030.0200195312500000,236.0229034423828000,542.7036743164062000,6.1982522010803220,36.6151695251464840,80,760,96,77,80,11294,2146966765,2147518418,2147302509,2147521398,2147088795,2146912996,2147724388,2147120091,280,-1,8,42886
1363868520,5809,1031.6300048828125000,236.5032958984375000,542.5588989257812000,6.2027888298034670,36.5875511169433600,80,764,96,78,80,11288,2146966180,2147520118,2147299090,2147522541,2147088338,2146920283,2147725147,2147121718,50,-1,8,42039
1363872120,5808,1011.1199951171875000,229.3403015136718800,535.6547851562500000,6.4189147949218750,36.8417091369628900,81,760,96,76,79,11297,2146963995,2147517110,2147301714,2147519131,2147089280,2146923145,2147723977,2147123200,222,0,8,48654
1363875720,5807,1008.9600219726562000,228.5021057128906200,534.3068237304688000,6.4610671997070310,36.8626899719238300,80,761,95,77,81,11294,2146963017,2147518473,2147298998,2147522258,2147087899,2146923812,2147719689,2147121078,453,-1,8,32131
1363876556,5804,1008.8499755859375000,228.0971984863281200,534.4401855468750000,6.4568982124328610,36.8870086669921900,81,761,95,77,80,11414,2146966189,2147516708,2147297289,2147521206,2147087186,2146917833,2147718235,2147121819,3196,-1,8,64947
